CAPE
0 0 0 0 0 0 0 0 0 0 0 0 0 0 0 0 0 0 15 23 36 23 11 21 10 11 14 22 20 19 15 17 14 8 11 18 20 16 16 13 13 14 11
0 0 0 0 0 0 0 0 0 0 0 0 0 0 0 0 0 0 1 2 28 28 7 17 11 15 17 7 16 14 13 9 14 11 12 12 11 11 17 17 12 11 9
0 0 0 0 0 0 0 0 0 0 0 0 0 0 0 0 0 0 0 0 1 21 2 8 10 28 11 10 16 17 10 15 12 6 9 21 12 10 7 18 15 12 12
0 0 0 0 0 0 0 0 0 0 0 0 0 0 0 0 0 0 0 0 0 0 0 0 4 3 18 18 9 19 3 4 12 12 13 4 17 20 14 6 13 13 13
0 0 0 0 0 0 0 0 0 0 0 0 0 0 0 0 0 0 0 0 0 0 0 0 0 3 6 6 8 14 9 13 4 9 9 8 15 20 15 16 13 13 12
0 0 0 0 0 0 0 0 0 0 0 0 0 0 0 0 0 0 0 0 0 0 0 0 0 0 0 6 16 2 17 7 7 10 2 13 13 21 18 18 7 14 12
0 0 0 0 0 0 0 0 0 0 0 0 0 0 0 0 0 0 0 0 0 0 0 0 0 0 0 0 0 6 16 8 6 6 1 12 13 20 22 5 10 12 14
0 0 0 0 0 0 0 0 0 0 0 0 0 0 0 0 0 0 0 0 0 0 0 0 0 0 0 0 0 0 0 14 12 5 2 4 14 12 10 15 8 16 16
0 0 0 0 0 0 0 0 0 0 0 0 0 0 0 0 0 0 0 0 0 0 0 0 0 0 0 0 0 0 0 0 10 4 6 9 9 7 13 5 14 16 15
0 0 0 0 0 0 0 0 0 0 0 0 0 0 0 0 0 0 0 0 0 0 0 0 0 0 0 0 0 0 0 0 11 3 4 3 12 10 8 15 16 17 14
0 0 0 0 0 0 0 0 0 0 0 0 0 0 0 0 0 0 0 0 0 0 0 0 0 0 0 0 0 0 0 0 2 4 7 9 6 9 11 10 11 14 16
0 0 0 0 0 0 0 0 0 0 0 0 0 0 0 0 0 0 0 0 0 0 0 0 0 0 0 0 0 0 0 0 9 6 7 4 9 6 10 11 12 11 8
0 0 0 0 0 0 0 0 0 0 0 0 0 0 0 0 0 0 0 0 0 0 0 0 0 0 0 0 0 0 0 0 2 3 6 4 4 5 8 11 9 7 6
0 0 0 0 0 0 0 0 0 0 0 0 0 0 0 0 0 0 0 0 0 0 0 0 0 0 0 0 0 0 0 0 0 1 2 2 3 0 2 4 4 3 1
0 0 0 0 0 0 0 0 0 0 0 0 0 0 0 0 0 0 0 0 0 0 0 0 0 0 0 0 0 0 0 0 0 0 0 0 0 0 1 1 3 0 0
0 0 0 0 0 0 0 0 0 0 0 0 0 0 0 0 0 0 0 0 0 0 0 0 0 0 0 0 0 0 0 0 0 0 0 0 1 0 0 2 0 0 0
0 0 0 0 0 0 0 0 0 0 0 0 0 0 0 0 0 0 0 0 0 0 0 0 0 0 0 0 0 0 0 0 0 0 0 0 0 0 0 1 0 0 0
0 0 0 0 0 0 0 0 0 0 0 0 0 0 0 0 0 0 0 0 0 0 0 0 0 0 0 0 0 0 0 0 0 0 0 0 0 0 3 1 0 0 0
0 0 0 0 0 0 0 0 0 0 0 0 0 0 0 0 0 0 0 0 0 0 0 0 0 0 0 0 0 0 0 0 0 0 0 0 0 0 6 1 0 0 0
0 0 0 0 0 0 0 0 0 0 0 0 0 0 0 0 0 0 0 0 0 0 0 0 0 0 0 0 0 0 0 0 0 0 0 0 0 4 9 2 0 0 0
0 0 0 0 0 0 0 0 0 0 0 0 0 0 0 0 0 0 0 0 0 0 0 0 0 0 0 0 0 0 0 0 0 0 0 0 0 0 0 1 0 0 0
0 0 0 0 0 0 0 0 0 0 0 0 0 0 0 0 0 0 0 0 0 0 0 0 0 0 0 0 0 0 0 0 0 0 0 0 0 0 0 0 0 0 0
0 0 0 0 0 0 0 0 0 0 0 0 0 0 0 0 0 0 0 0 0 0 0 0 0 0 0 0 0 0 0 0 0 0 0 0 0 0 0 0 0 0 0
0 0 0 0 0 0 0 0 0 0 0 0 0 0 0 0 0 0 0 0 0 0 0 0 0 0 0 0 0 0 0 0 0 0 0 0 0 0 0 0 0 0 0
0 0 0 0 0 0 0 0 0 0 0 0 0 0 0 0 0 0 0 0 0 0 0 0 0 0 0 0 0 0 0 0 0 0 0 0 0 0 0 0 0 0 0
0 0 0 0 0 0 0 0 0 0 0 0 0 0 0 0 0 0 0 0 0 0 0 0 0 0 0 0 0 0 0 0 0 0 0 0 0 0 0 0 0 0 0
CIN
0 0 0 0 0 0 0 0 0 0 0 0 0 0 0 0 0 0 -20 -13 -2 0 0 0 0 0 0 0 0 0 0 0 0 -1 0 0 0 0 0 0 0 0 0
0 0 0 0 0 0 0 0 0 0 0 0 0 0 0 0 0 0 -15 -18 -8 -1 0 0 0 0 0 0 0 0 -1 0 0 0 0 0 0 0 0 0 0 0 0
0 0 0 0 0 0 0 0 0 0 0 0 0 0 0 0 0 0 -6 0 -5 -12 -1 0 -2 -1 0 0 0 0 0 0 0 0 0 0 0 -1 0 0 0 0 0
0 0 0 0 0 0 0 0 0 0 0 0 0 0 0 0 0 0 0 0 0 0 0 0 0 0 0 -1 0 0 0 0 0 0 0 0 0 -1 0 0 0 0 0
0 0 0 0 0 0 0 0 0 0 0 0 0 0 0 0 0 0 0 0 0 0 0 0 -1 -9 -2 0 0 -1 0 0 0 0 0 0 0 -1 -1 0 0 0 0
0 0 0 0 0 0 0 0 0 0 0 0 0 0 0 0 0 0 0 0 0 0 0 0 0 0 0 -6 -2 0 0 0 -1 0 0 0 -1 -1 0 0 0 0 0
0 0 0 0 0 0 0 0 0 0 0 0 0 0 0 0 0 0 0 0 0 0 0 0 0 0 0 0 0 -3 -2 0 0 0 0 -2 -1 0 -1 0 0 0 0
0 0 0 0 0 0 0 0 0 0 0 0 0 0 0 0 0 0 0 0 0 0 0 0 0 0 0 0 0 0 0 -4 -2 0 -1 0 -1 -1 0 0 0 0 0
0 0 0 0 0 0 0 0 0 0 0 0 0 0 0 0 0 0 0 0 0 0 0 0 0 0 0 0 0 0 0 -15 -1 0 0 0 -1 -1 0 0 0 0 0
0 0 0 0 0 0 0 0 0 0 0 0 0 0 0 0 0 0 0 0 0 0 0 0 0 0 0 0 0 0 0 -24 -1 0 0 0 -1 0 0 0 0 0 0
0 0 0 0 0 0 0 0 0 0 0 0 0 0 0 0 0 0 0 0 0 0 0 0 0 0 0 0 0 0 0 0 0 0 0 0 0 0 0 0 0 0 0
0 0 0 0 0 0 0 0 0 0 0 0 0 0 0 0 0 0 0 0 0 0 0 0 0 0 0 0 0 0 0 0 -1 0 0 0 0 0 0 0 0 0 0
0 0 0 0 0 0 0 0 0 0 0 0 0 0 0 0 0 0 0 0 0 0 0 0 0 0 0 0 0 0 0 0 0 0 0 0 0 0 0 0 0 0 0
0 0 0 0 0 0 0 0 0 0 0 0 0 0 0 0 0 0 0 0 0 0 0 0 0 0 0 0 0 0 0 0 0 0 0 0 0 0 0 0 0 0 0
0 0 0 0 0 0 0 0 0 0 0 0 0 0 0 0 0 0 0 0 0 0 0 0 0 0 0 0 0 0 0 0 0 0 0 0 0 0 0 0 0 0 0
0 0 0 0 0 0 0 0 0 0 0 0 0 0 0 0 0 0 0 0 0 0 0 0 0 0 0 0 0 0 0 0 0 0 0 0 0 0 0 0 0 0 0
0 0 0 0 0 0 0 0 0 0 0 0 0 0 0 0 0 0 0 0 0 0 0 0 0 0 0 0 0 0 0 0 0 0 0 0 0 0 0 0 0 0 0
0 0 0 0 0 0 0 0 0 0 0 0 0 0 0 0 0 0 0 0 0 0 0 0 0 0 0 0 0 0 0 0 0 0 0 0 0 0 0 0 0 0 0
0 0 0 0 0 0 0 0 0 0 0 0 0 0 0 0 0 0 0 0 0 0 0 0 0 0 0 0 0 0 0 0 0 0 0 0 0 0 0 0 0 0 0
0 0 0 0 0 0 0 0 0 0 0 0 0 0 0 0 0 0 0 0 0 0 0 0 0 0 0 0 0 0 0 0 0 0 0 0 0 0 0 0 0 0 0
0 0 0 0 0 0 0 0 0 0 0 0 0 0 0 0 0 0 0 0 0 0 0 0 0 0 0 0 0 0 0 0 0 0 0 0 0 0 -1 -1 0 0 0
0 0 0 0 0 0 0 0 0 0 0 0 0 0 0 0 0 0 0 0 0 0 0 0 0 0 0 0 0 0 0 0 0 0 0 0 0 0 0 0 0 0 0
0 0 0 0 0 0 0 0 0 0 0 0 0 0 0 0 0 0 0 0 0 0 0 0 0 0 0 0 0 0 0 0 0 0 0 0 0 0 0 0 0 0 0
0 0 0 0 0 0 0 0 0 0 0 0 0 0 0 0 0 0 0 0 0 0 0 0 0 0 0 0 0 0 0 0 0 0 0 0 0 0 0 0 0 0 0
0 0 0 0 0 0 0 0 0 0 0 0 0 0 0 0 0 0 0 0 0 0 0 0 0 0 0 0 0 0 0 0 0 0 0 0 0 0 0 0 0 0 0
0 0 0 0 0 0 0 0 0 0 0 0 0 0 0 0 0 0 0 0 0 0 0 0 0 0 0 0 0 0 0 0 0 0 0 0 0 0 0 0 0 0 0
Wind_Speed
7 6 5 6 5 5 5 5 4 4 6 7 7 10 10 11 8 4 6 12 15 15 15 15 14 14 14 14 15 14 14 14 15 15 15 16 16 16 16 17 17 17 16
9 8 8 7 5 6 5 5 5 8 6 7 6 10 9 9 9 6 6 6 14 12 13 13 12 13 13 13 13 13 14 14 14 15 15 15 15 15 16 15 16 16 16
11 10 9 7 6 5 6 5 5 7 7 6 7 9 8 9 8 7 7 4 9 11 11 11 11 12 12 12 12 12 12 12 12 13 13 13 14 14 13 14 15 15 16
12 11 8 7 7 5 5 5 5 8 7 8 5 7 7 6 7 6 6 5 6 5 8 10 9 9 12 10 10 13 10 11 12 11 12 12 12 12 13 13 14 15 15
12 10 7 6 7 6 6 6 3 7 8 6 5 5 5 5 5 6 7 6 7 6 4 11 11 9 9 8 8 10 10 10 9 10 10 11 11 12 13 13 13 13 14
11 10 7 8 8 7 6 6 7 5 5 6 7 6 5 4 4 5 6 6 5 6 5 5 4 4 8 9 9 7 8 9 8 10 8 9 10 11 11 12 11 11 13
10 10 7 8 7 9 8 9 6 10 3 5 6 5 5 4 4 3 4 5 5 5 6 5 3 3 3 8 8 8 7 6 7 7 7 7 9 10 11 9 11 13 13
11 10 10 8 8 8 8 9 8 5 4 5 5 5 3 4 3 1 2 4 6 5 5 5 6 5 4 3 4 4 4 6 8 6 6 7 9 9 9 11 10 13 13
10 10 11 9 9 8 8 8 10 8 10 1 12 6 4 4 3 1 2 3 5 3 4 5 6 6 5 4 3 2 5 7 8 6 6 7 8 7 10 10 12 12 12
9 11 11 10 10 6 8 7 8 7 8 9 6 1 2 6 5 2 2 2 4 5 5 4 5 6 5 4 4 2 3 5 7 5 4 4 7 8 9 11 12 13 13
9 10 11 11 10 7 8 10 9 10 7 7 5 3 2 2 3 4 3 3 0 3 4 5 5 5 5 5 3 2 2 1 6 5 4 7 5 8 8 8 12 13 13
8 7 10 10 9 8 10 8 9 9 9 7 4 4 4 4 4 4 3 1 4 2 3 4 5 5 5 5 5 6 2 2 8 7 5 6 5 8 8 9 10 12 12
8 10 11 11 9 8 8 8 9 8 8 9 9 5 4 4 4 3 4 3 3 2 3 3 4 5 5 4 5 6 5 5 9 9 7 7 8 5 8 9 10 11 12
11 13 10 10 8 10 9 9 6 7 6 6 8 6 4 5 4 4 5 6 3 1 1 3 2 4 5 5 6 9 4 7 9 11 10 10 9 7 7 9 10 11 11
6 9 11 10 10 10 10 9 8 9 8 6 7 7 4 4 4 4 4 5 7 5 7 5 4 4 4 5 7 5 5 6 8 10 11 12 12 11 10 11 10 10 10
9 10 11 10 10 10 10 10 7 8 9 7 6 8 6 4 6 4 5 6 3 5 4 3 5 4 5 6 8 6 5 7 9 9 10 11 11 11 11 13 13 11 11
12 13 14 12 11 10 10 10 10 10 12 10 10 11 11 7 8 6 5 5 5 4 4 2 2 3 4 7 6 4 5 5 5 11 11 10 10 10 12 13 12 13 12
12 13 12 11 11 10 11 13 12 12 14 13 13 11 13 8 9 9 8 9 10 5 5 6 4 3 4 5 7 8 6 4 4 8 11 11 11 11 13 13 12 12 11
8 7 10 11 8 9 11 13 13 13 14 14 13 13 13 12 11 9 9 8 6 6 4 5 5 3 3 4 4 4 5 5 5 10 12 12 12 12 12 13 11 11 10
10 9 8 12 14 11 11 14 12 11 10 12 12 13 13 13 15 12 11 11 6 6 3 4 3 6 3 3 5 7 4 2 4 5 8 8 9 11 13 13 12 10 9
11 11 11 11 10 12 10 12 11 12 10 9 11 10 11 12 12 11 9 10 10 8 6 5 3 3 4 4 10 4 3 3 0 2 3 3 4 2 4 11 8 10 8
10 11 12 11 12 10 14 14 12 9 10 8 7 7 8 9 12 15 17 15 15 13 12 8 6 8 11 9 6 8 5 5 5 4 3 3 3 4 4 3 11 11 9
8 8 9 8 9 10 13 19 20 12 12 13 13 11 9 8 11 11 15 13 14 18 19 14 13 11 9 12 10 10 8 7 4 4 5 5 4 4 4 5 14 14 12
10 10 10 11 11 10 14 18 20 14 11 10 13 14 15 14 13 14 12 12 11 10 12 9 12 11 10 12 14 12 11 5 3 2 5 4 4 5 3 4 16 16 15
8 8 8 11 12 10 15 14 13 11 10 10 11 11 11 12 14 20 13 14 13 10 7 8 8 12 14 20 14 8 6 8 2 2 3 3 4 4 4 3 4 16 15
3 3 3 3 7 6 10 13 15 7 10 5 4 5 11 10 12 18 15 12 11 8 7 6 4 6 11 14 20 12 10 9 3 1 5 5 3 4 1 3 4 4 6
Wind_Direction
155 147 148 152 154 148 145 156 183 132 122 104 100 106 103 98 97 86 97 90 92 95 86 94 100 90 86 86 82 84 75 70 65 68 67 63 57 60 56 56 52 52 49
160 157 161 166 167 165 161 161 152 130 113 110 93 103 103 106 108 104 105 97 88 85 82 87 93 90 97 90 87 82 77 78 76 70 59 65 63 54 58 51 52 53 52
163 163 166 168 180 163 153 138 101 113 111 116 105 118 117 117 118 114 109 85 94 79 84 85 93 94 90 96 92 75 80 72 71 72 72 61 63 62 57 60 52 49 51
162 164 163 166 165 146 144 124 129 120 123 125 121 130 127 125 121 124 105 91 85 81 75 82 99 98 100 86 85 88 83 76 77 72 63 68 66 65 61 56 56 53 48
158 154 158 156 150 144 142 139 122 123 123 114 114 100 101 105 104 101 104 102 107 104 90 85 73 57 64 81 88 94 87 88 79 67 66 68 66 70 60 59 57 54 54
150 146 152 148 150 142 147 127 136 115 129 129 109 82 74 74 89 110 112 129 125 125 121 111 104 82 75 54 52 91 91 92 78 69 71 67 72 73 69 67 64 57 58
148 147 149 149 147 153 155 143 136 136 107 117 98 66 43 57 92 114 120 129 138 144 139 134 128 103 85 85 69 45 37 114 107 89 81 78 74 75 76 70 66 61 55
152 148 154 154 151 149 150 153 150 130 104 150 127 96 87 350 4 135 135 149 154 152 159 158 148 145 121 106 85 66 27 13 112 93 90 83 82 82 77 74 65 55 56
159 153 158 157 156 158 164 166 158 152 154 161 161 134 140 192 128 315 203 185 157 155 143 155 158 161 152 135 91 20 358 344 114 105 95 84 87 81 73 71 67 69 66
159 157 160 161 166 162 165 170 159 156 150 160 184 127 118 143 158 157 287 203 176 169 172 175 151 152 155 143 149 128 352 323 120 114 94 76 88 79 80 78 79 74 69
159 162 167 164 171 168 169 171 164 164 163 164 175 131 99 76 108 133 179 205 54 197 178 171 167 151 159 148 151 173 10 297 149 137 120 99 112 103 89 91 83 78 72
173 168 171 175 172 176 176 176 168 168 173 173 151 163 149 160 172 139 121 117 162 227 175 182 166 170 161 158 171 169 189 271 150 140 131 113 92 97 109 98 89 84 78
182 185 176 178 179 176 168 167 175 171 173 184 180 181 162 166 147 131 116 136 154 231 178 199 190 166 162 156 161 157 168 159 148 144 137 139 109 101 102 100 91 85 78
185 181 178 180 172 168 169 173 171 176 167 180 177 177 182 188 159 151 143 143 101 342 270 190 194 179 161 161 169 163 162 139 149 152 151 138 135 116 114 107 100 90 85
177 181 178 175 176 177 170 172 180 183 182 177 190 186 184 191 189 178 157 162 145 170 209 220 176 183 163 151 166 155 162 160 149 154 156 158 152 147 138 126 111 101 95
174 175 183 178 178 182 178 173 181 184 185 190 184 189 195 179 188 187 173 175 158 140 180 176 210 149 166 164 167 153 168 153 158 166 166 170 161 159 154 138 133 122 110
177 175 179 179 187 186 187 186 188 185 196 197 200 200 203 180 193 190 174 174 161 149 135 200 158 161 151 154 140 150 160 155 163 175 171 173 168 172 167 147 140 133 127
174 176 169 178 187 192 197 197 194 192 198 200 204 201 212 197 197 192 190 188 188 173 137 154 174 145 159 171 151 153 162 164 161 186 174 179 171 176 174 155 150 140 133
172 164 174 165 186 204 207 211 205 202 203 205 202 205 214 203 207 199 197 196 183 174 160 145 160 156 144 159 139 149 165 163 177 174 176 179 182 187 178 162 158 142 133
170 185 178 186 182 194 209 214 208 207 209 209 207 209 208 207 214 201 200 199 173 160 159 155 140 162 148 146 150 167 155 142 172 171 171 163 186 189 176 184 169 157 154
184 189 195 213 204 181 201 197 204 207 212 223 217 205 209 207 210 213 202 201 179 172 168 161 146 139 158 159 185 151 141 140 205 147 147 157 157 161 193 192 180 169 170
181 179 188 196 196 210 192 191 187 207 202 210 233 222 203 200 206 209 213 203 193 182 186 175 175 189 189 181 158 173 129 144 200 196 136 193 173 175 199 207 188 193 186
183 184 196 189 209 223 206 205 199 210 213 209 214 216 212 212 208 207 214 205 204 200 189 181 188 192 177 179 163 167 177 187 189 166 148 181 181 200 190 208 206 204 195
190 199 202 195 207 207 217 209 202 210 209 205 218 221 221 215 201 206 204 211 213 212 200 193 196 186 186 169 178 183 181 155 86 134 153 174 165 202 177 199 208 203 198
189 198 204 202 203 207 201 192 191 209 204 205 213 217 215 218 211 199 196 204 205 205 190 187 172 164 163 167 160 126 146 161 180 221 220 124 174 150 183 208 221 208 202
99 125 141 181 222 216 191 189 198 201 184 178 171 216 212 216 197 197 205 200 199 180 137 114 107 145 160 169 162 167 158 170 133 139 208 176 135 134 221 212 197 216 190